Regional Weather Roundup
Issued by NWS Northern Indiana

Home | Current Version | Previous Version | Graphics & Text | Print | Product List | Glossary On
Versions: 1 2 3 4 5 6 7 8 9 10 11 12 13 14 15 16 17 18 19 20 21 22 23 24 25 26 27 28 29 30 31 32 33 34 35 36 37 38 39 40 41 42 43 44 45 46 47 48 49 50
558
ASUS43 KIWX 300400
RWRIWX

KIWX WEATHER ROUNDUP
NATIONAL WEATHER SERVICE NORTHERN INDIANA
1200 AM EDT SAT APR 30 2016

NOTE: "FAIR" INDICATES FEW OR NO CLOUDS BELOW 12,000 FEET WITH NO
SIGNIFICANT WEATHER AND/OR OBSTRUCTIONS TO VISIBILITY.

* THESE STATIONS ARE NOT UNDER NWS QUALITY CONTROL. THEY ALSO MAY NOT
  REPORT WEATHER SUCH AS PRECIPITATION OR FOG.

INZ001>027-300500-
NORTHERN INDIANA

CITY           SKY/WX    TMP DP  RH WIND       PRES   REMARKS
SOUTH BEND     CLEAR     45  42  89 NE6       30.13S
GOSHEN         CLOUDY    49  45  86 NE5       30.12F
ANGOLA*        CLOUDY    48  36  61 E9        30.14S
FORT WAYNE     CLOUDY    48  43  82 E10       30.14R
PERU/GRISSOM   PTCLDY    48  46  93 E7        30.08F

$$
INZ028>050-300500-
CENTRAL INDIANA

CITY           SKY/WX    TMP DP  RH WIND       PRES   REMARKS
LAFAYETTE      CLOUDY    49  45  86 NE10      30.07F
KOKOMO*        MOCLDY    48  43  81 E7        30.08F
MUNCIE*        CLOUDY    51  46  83 E8        30.10F
INDIANAPOLIS   CLOUDY    57  47  69 E16       30.05F

$$
MIZ043>046-050>051-056>058-064>065-071>073-077>080-300500-
SOUTHWEST LOWER MICHIGAN

CITY           SKY/WX    TMP DP  RH WIND       PRES   REMARKS
BATTLE CREEK   CLOUDY    48  39  71 E3        30.15S
BENTON HARBOR  CLOUDY    47  41  80 E3        30.14R
COLDWATER*     CLOUDY    49  40  71 SE6       30.15R
HILLSDALE*     CLOUDY    47  40  76 E6        30.14S
HOLLAND        CLEAR     43  38  82 CALM      30.16R
GRAND RAPIDS   CLEAR     43  37  79 SE7       30.15S
KALAMAZOO      CLOUDY    49  39  68 E3        30.14S
STURGIS*       CLOUDY    49  41  76 E7        30.13R
THREE RIVERS*  CLOUDY    49  42  75 E5        30.14S

$$
OHZ001>008-015>018-024>025-300500-
NORTHWEST OHIO

CITY           SKY/WX    TMP DP  RH WIND       PRES   REMARKS
DEFIANCE       CLOUDY    48  40  73 E7        30.16S
FINDLAY        CLOUDY    45  38  76 E5        30.15R
TOLEDO EXPRESS CLOUDY    47  37  68 E7        30.15F
TOLEDO METCALF CLOUDY    46  39  76 SE8       30.16F
LIMA           CLOUDY    48  44  86 E6        30.14S

$$
AND FOR LAKE MICHIGAN COASTAL AND OPEN LAKE BUOY OBSERVATIONS

STATION/POSITION TEMP    WIND        PRES    VSBY  WAVE
                 AIR SEA DIR/SP/G                  HT/PER
                 (F)     (DEG/KT/KT) (MB)    (MI)  (FT/S)
CALUMET HARBOR    42                   N/A
MICHIGAN CITY     44      20/  9/ 10   N/A
BURNS HARBOR      44      50/  9/ 12 1020.7F
SAINT JOSEPH      47      20/  2/  5 1021.3S
SOUTH LAKE BUOY   41 40   60/ 10/ 10 1020.7          1/ 3
4 MI NW BRIDGMAN  46 47                N/A           2/ 4

$$
&&




USA.gov is the U.S. government's official web portal to all federal, state and local government web resources and services.